RH
9 8 9 14 15 19 19 23 28 50 48 69 100 100 100 90 54 70 82 88 99 100 100 100 100 96 79 73 74 92 97 96 94 92 90 85 88 95 97 96 92 91 93 100
8 10 12 12 16 17 20 21 31 62 51 59 100 100 100 84 61 50 72 85 94 98 100 100 100 100 91 81 84 82 90 98 100 100 100 100 99 100 100 100 100 100 100 100
9 12 11 14 15 17 20 25 44 68 60 41 66 85 100 86 65 56 58 80 89 98 100 100 100 100 100 100 100 100 99 99 100 99 100 100 100 100 100 100 100 100 100 100
10 11 12 16 17 18 19 23 30 43 54 53 46 82 57 88 79 64 58 66 78 80 98 100 100 100 100 100 100 100 100 100 100 100 99 99 100 100 100 100 100 100 100 100
11 11 12 16 19 18 19 20 28 34 52 63 39 32 55 45 47 82 68 58 66 77 66 79 95 100 100 100 100 100 100 100 100 100 100 100 100 100 100 100 100 91 88 86
10 8 11 15 19 19 19 20 22 27 45 40 41 27 44 53 41 63 67 58 53 62 82 76 81 92 97 100 100 100 100 100 100 100 100 100 100 100 100 100 100 100 90 84
9 9 13 16 19 19 19 19 20 22 50 45 35 26 89 46 56 47 54 73 72 69 71 79 85 89 95 93 97 100 100 100 100 100 100 100 100 100 100 100 100 100 100 100
8 13 14 19 20 23 22 18 20 21 26 53 26 21 46 47 40 46 56 77 87 95 94 92 91 97 100 100 95 95 96 100 100 100 100 100 100 100 100 100 100 97 88 96
12 18 15 17 21 21 24 20 19 19 23 23 22 22 44 51 44 47 45 62 93 94 100 92 90 99 100 100 100 100 100 98 98 99 100 100 100 100 100 100 100 100 100 100
18 18 17 16 18 20 24 25 22 20 20 21 28 34 62 83 72 66 57 60 61 68 68 89 94 94 97 99 100 100 100 100 100 100 100 99 100 100 100 100 100 100 99 99
28 31 26 22 20 22 24 24 26 25 21 24 52 76 85 96 76 74 74 67 56 63 65 54 53 80 100 100 96 96 100 100 100 100 100 100 100 100 100 100 100 100 97 99
23 38 37 31 27 26 25 24 23 23 27 27 44 100 100 100 98 85 92 75 65 68 74 75 71 68 63 69 86 97 97 96 96 100 100 100 100 100 100 100 100 100 100 100
10 15 22 27 32 33 27 29 31 30 29 30 29 26 52 100 100 100 100 100 95 74 68 59 61 74 77 73 69 73 76 80 87 86 88 94 100 100 100 100 100 100 100 100
14 13 13 14 19 19 28 28 24 25 28 28 28 30 28 29 73 100 100 100 100 100 95 88 74 66 65 69 59 58 67 65 68 69 68 75 78 94 100 100 100 100 100 100
17 18 18 16 14 15 17 19 20 23 25 23 23 26 29 29 26 24 22 23 44 95 100 97 99 90 73 83 76 80 69 67 56 52 58 56 69 92 100 96 97 94 100 98
19 19 21 20 21 21 20 20 20 19 19 20 18 20 21 23 24 22 21 20 20 19 19 19 19 48 93 100 100 99 89 98 95 57 66 85 100 100 83 76 90 91 67 73
23 24 23 22 20 23 24 21 22 22 22 22 23 20 20 19 20 20 20 20 18 17 17 17 17 18 19 18 17 16 18 17 19 34 57 78 86 85 86 90 46 51 69 66
27 25 26 25 26 26 24 27 26 27 27 32 26 21 21 19 18 18 18 19 19 19 18 18 18 18 18 16 16 16 16 16 18 20 24 29 36 51 66 50 65 70 46 47
47 42 34 32 32 33 29 29 28 26 26 30 28 26 23 23 23 22 20 19 19 18 19 21 22 20 18 18 18 18 20 26 29 34 34 32 31 47 57 47 63 73 86 96
47 56 62 55 45 35 29 31 34 33 32 35 35 35 32 30 29 23 25 22 20 19 21 22 21 20 21 23 24 26 35 32 50 50 53 49 51 58 85 89 100 100 93 85
25 42 56 63 63 63 47 42 46 47 48 47 45 48 48 46 39 38 35 30 28 23 23 22 23 25 26 28 29 30 36 56 70 71 78 86 97 92 97 100 100 99 96 97
21 26 35 58 60 64 61 64 60 45 52 50 51 55 57 65 54 44 44 41 43 36 33 35 30 24 25 27 28 30 41 59 57 80 100 94 100 100 100 100 90 100 100 82
18 18 23 30 44 60 68 63 66 75 69 49 44 45 51 57 55 50 48 58 59 53 46 50 53 53 53 55 54 50 54 57 68 86 100 100 100 100 100 100 100 98 90 74
19 21 19 23 28 38 55 75 74 78 79 80 71 55 51 50 51 53 49 46 59 72 72 77 71 66 70 80 83 82 79 84 95 100 100 100 100 100 100 100 95 93 87 78
16 20 23 24 26 29 34 54 74 78 84 84 86 84 70 66 63 57 55 58 57 69 80 89 92 87 84 83 88 91 92 100 100 100 100 100 97 100 100 99 97 97 90 78
13 16 20 23 27 27 30 32 45 67 83 85 85 82 81 80 72 74 80 76 74 77 89 92 95 97 94 90 93 97 100 100 100 100 100 100 100 100 100 100 100 99 90 86
Wind_Speed
77 78 74 74 86 95 103 109 112 113 115 115 118 113 114 120 112 105 99 93 88 87 86 83 82 81 81 81 80 79 78 78 77 76 76 75 73 73 73 73 73 73 73 74
75 72 80 81 87 95 101 107 109 115 119 116 120 119 118 123 116 107 102 98 94 88 86 84 82 81 83 83 83 82 81 79 77 76 76 76 77 76 74 74 75 76 77 77
71 73 77 79 82 92 100 106 111 115 116 116 119 123 124 121 117 111 105 102 99 92 88 86 84 82 82 82 82 82 81 81 80 79 78 78 77 76 77 78 78 79 78 78
70 73 73 76 80 90 97 104 108 113 116 116 119 120 122 122 119 113 108 105 102 99 93 90 89 87 85 83 82 81 79 79 79 78 78 78 78 79 79 78 79 79 79 79
67 70 71 74 79 85 94 100 107 110 115 117 116 116 117 120 116 113 110 108 106 102 99 96 91 90 89 88 86 84 81 79 78 78 78 78 79 79 80 80 82 84 84 85
62 64 66 70 76 82 89 95 103 109 114 112 114 114 114 114 112 113 113 111 108 106 103 101 97 94 93 92 90 88 85 83 82 81 80 80 80 80 79 80 82 83 85 86
47 52 60 66 71 78 84 90 97 104 112 111 112 112 111 113 113 112 110 110 109 107 105 103 102 99 95 94 92 90 88 86 85 85 85 85 83 83 83 82 82 83 83 85
30 39 54 61 66 71 80 85 90 97 105 112 107 103 107 112 109 108 109 108 107 106 106 105 103 101 99 97 96 94 92 90 88 87 86 85 85 85 85 85 86 87 89 88
27 41 52 58 63 67 74 79 85 90 95 97 96 96 104 105 102 101 100 104 107 107 109 110 108 106 104 102 100 98 96 95 94 93 92 90 89 89 89 88 88 89 90 92
13 25 38 52 59 60 63 72 76 82 87 87 90 92 101 106 105 102 99 101 103 105 107 109 108 108 108 107 105 103 101 100 99 98 97 96 95 95 94 95 95 95 96 98
16 22 26 36 44 53 59 61 68 74 76 85 93 101 105 110 102 100 99 98 95 94 96 100 102 102 105 108 109 108 106 104 103 102 101 100 99 98 98 98 98 99 100 99
23 24 27 31 45 53 57 59 58 60 67 78 91 117 111 117 108 101 102 95 89 88 92 92 89 91 95 100 105 108 108 109 109 107 106 105 104 102 100 100 99 99 99 101
24 28 35 38 43 46 52 57 58 60 65 65 75 93 104 121 115 115 110 104 103 96 95 91 86 86 87 89 93 94 97 99 100 103 105 107 108 108 106 106 105 105 105 105
22 27 31 36 41 48 53 59 62 61 58 65 65 74 82 94 107 117 117 119 119 112 104 98 95 92 89 90 89 88 90 94 96 98 97 98 99 102 104 105 106 107 105 106
18 24 27 31 36 42 47 48 51 55 60 56 63 64 69 75 79 86 92 95 100 112 117 112 112 112 106 100 99 101 102 101 101 102 101 98 98 98 97 99 101 102 104 106
14 18 24 29 32 35 39 42 44 47 49 49 55 60 65 69 72 73 76 79 82 87 90 92 93 95 106 113 113 112 109 108 109 106 103 102 104 106 100 97 103 108 103 100
15 17 20 22 26 30 34 38 41 42 44 45 48 55 59 62 65 69 70 71 73 76 79 81 83 86 88 91 93 93 93 91 89 89 92 94 97 99 98 99 94 91 90 88
14 17 20 22 24 28 31 33 37 39 40 43 49 52 54 56 60 62 65 67 68 70 71 73 77 80 82 82 82 81 81 81 81 81 82 82 82 80 83 84 79 80 77 72
14 14 17 22 24 29 31 33 36 38 40 42 45 47 50 51 52 57 61 63 64 66 66 68 69 72 71 70 71 72 71 73 73 73 73 73 72 71 71 66 61 60 60 62
20 19 18 18 22 28 30 31 33 35 37 41 43 45 47 48 50 53 55 58 60 61 61 63 64 65 64 65 66 67 68 68 66 69 68 65 59 54 52 54 54 59 62 66
24 25 24 22 21 22 25 29 34 37 38 40 41 42 45 46 47 46 50 52 54 55 56 58 61 63 63 62 64 65 65 63 59 60 61 56 51 55 55 56 59 61 65 69
27 27 26 28 27 24 25 25 28 34 40 41 42 45 47 48 49 47 50 49 49 50 49 50 51 54 56 58 59 60 61 62 60 60 58 57 56 54 55 58 64 63 66 65
28 28 28 29 29 29 28 27 27 28 31 37 40 44 47 48 48 48 47 47 47 49 46 46 48 48 47 47 48 49 50 51 48 47 57 58 54 58 63 61 57 60 56 53
29 31 30 30 30 31 31 29 28 29 30 30 32 36 39 42 44 46 46 44 44 45 44 41 42 41 41 44 45 44 42 39 39 42 46 50 53 53 53 56 56 52 49 49
30 31 32 34 32 33 31 30 32 30 29 30 32 33 34 36 38 39 40 41 42 45 45 45 43 42 40 39 39 40 40 40 42 44 46 50 51 51 51 51 50 47 48 48
29 32 33 35 35 35 33 34 34 33 31 29 29 32 33 33 36 36 36 37 38 41 45 48 48 45 42 42 42 42 43 44 47 50 52 52 52 51 50 48 47 47 49 49
Wind_Direction
209 210 209 209 206 206 208 210 212 215 218 216 217 218 224 226 221 219 221 224 226 231 233 233 233 232 235 238 240 242 245 248 250 254 257 260 262 264 267 271 274 277 279 281
208 207 209 206 205 206 208 211 212 215 216 217 219 219 222 225 224 220 221 223 226 228 231 236 237 239 239 239 241 243 245 248 251 254 257 259 263 266 269 271 273 274 276 279
208 206 207 208 206 207 208 210 211 215 219 219 220 223 223 226 228 224 221 223 225 227 231 232 236 240 241 242 244 246 249 251 252 254 255 258 262 265 267 270 273 276 279 281
208 207 205 209 208 208 209 211 213 216 219 220 223 223 226 226 227 228 226 225 226 227 229 233 233 236 240 243 245 246 249 252 254 257 259 262 263 264 266 268 270 271 273 277
210 208 204 207 210 210 212 213 214 217 219 222 224 225 227 230 228 229 230 228 227 229 230 232 235 237 238 241 244 246 248 250 253 256 257 260 263 265 268 271 272 275 277 278
213 211 205 207 211 212 213 215 215 218 222 224 226 228 229 231 231 230 232 233 231 230 232 233 235 237 239 240 243 246 249 251 252 255 257 259 262 265 268 271 273 276 278 279
217 211 207 208 213 215 215 217 217 219 221 225 227 230 228 232 232 233 232 234 235 235 235 235 237 238 241 242 244 246 249 252 255 257 258 261 263 265 268 270 272 275 278 280
213 212 208 210 214 216 219 221 220 222 222 226 230 232 231 234 234 235 235 235 237 237 239 239 239 240 241 243 245 247 249 251 253 256 259 262 264 266 269 271 273 275 279 281
214 213 210 212 215 217 220 223 224 224 227 230 234 234 234 237 240 239 238 237 239 239 239 240 242 243 244 245 247 248 250 252 254 256 259 261 263 266 268 270 272 274 276 279
247 224 219 216 217 220 223 225 228 230 228 233 236 237 237 237 240 241 240 241 240 241 242 241 242 244 246 247 249 250 251 253 255 257 259 261 264 266 269 271 273 274 277 279
235 244 229 221 221 224 226 227 229 231 232 232 233 235 239 239 241 242 243 243 243 243 244 245 246 246 247 249 250 251 252 254 255 257 260 262 264 268 270 272 274 276 278 281
214 218 227 220 221 221 224 227 229 230 230 231 230 230 238 239 243 245 246 248 248 245 245 245 247 249 249 250 251 251 253 255 257 259 261 263 265 267 269 271 273 274 277 278
214 213 215 216 221 225 228 230 228 227 227 225 228 231 235 236 240 243 247 251 253 254 252 247 251 250 251 251 252 254 257 259 260 262 263 264 265 266 268 270 272 274 277 279
229 222 218 219 220 220 218 222 225 228 230 228 226 230 232 235 238 241 245 247 248 250 254 255 257 257 255 257 255 254 257 258 259 261 263 266 268 268 269 271 273 275 277 279
230 228 225 225 222 219 222 224 227 229 232 232 230 230 231 233 236 238 242 244 245 247 251 254 256 258 257 257 260 262 262 263 262 263 265 267 267 269 271 273 275 277 279 280
247 231 226 223 221 220 223 224 227 228 230 231 230 231 231 232 235 239 240 242 244 246 247 249 251 251 253 255 258 260 261 262 264 266 266 266 269 270 272 275 277 281 280 282
246 248 245 237 232 224 224 223 224 226 228 230 231 232 234 234 235 238 241 242 242 243 245 247 249 250 251 252 254 255 257 258 261 263 264 265 268 270 273 275 278 278 280 281
254 249 242 243 243 238 233 228 229 229 228 227 231 233 234 236 236 237 238 239 240 241 243 246 246 247 249 251 253 254 255 257 260 262 264 266 269 270 271 275 274 276 279 280
249 247 247 244 239 239 241 238 237 234 234 232 235 236 236 236 237 239 239 239 239 241 240 242 245 248 251 253 254 256 258 258 261 263 265 267 268 271 272 273 274 276 279 282
246 242 240 242 244 244 246 239 241 242 242 239 237 237 240 240 240 241 241 243 243 243 242 244 246 247 248 251 253 255 257 260 262 264 264 266 269 270 273 274 274 277 280 282
247 245 240 240 241 240 248 249 246 245 244 242 242 242 241 243 244 245 246 246 246 245 245 243 243 246 249 250 253 254 256 258 260 260 266 267 263 270 270 272 275 280 281 281
245 247 247 245 243 242 241 238 239 241 241 242 242 242 243 244 248 248 246 249 250 251 251 250 250 248 247 248 250 253 254 255 258 257 258 263 267 269 272 274 282 279 281 284
253 250 246 246 247 245 243 244 240 240 243 243 242 241 242 245 248 250 249 248 248 251 254 253 252 253 251 251 252 253 253 254 254 256 256 258 260 265 272 276 276 280 281 286
254 255 254 250 247 247 244 243 245 245 246 248 248 246 245 244 244 246 249 249 247 248 250 251 252 253 250 249 249 250 250 249 249 250 255 258 261 265 268 272 276 278 283 289
254 253 253 253 251 249 247 244 244 245 245 245 247 248 248 249 248 246 246 246 247 245 247 248 251 254 254 251 252 249 249 249 249 252 254 257 265 268 270 272 274 277 283 289
258 256 253 253 252 252 250 247 245 245 245 246 248 248 248 246 247 246 245 245 245 244 246 248 249 249 252 253 254 252 249 249 248 250 257 259 262 266 268 269 272 276 285 291